Regional Weather Roundup
Issued by NWS

Home | Current Version | Previous Version | Graphics & Text | Print | Product List | Glossary On
Versions: 1 2 3 4 5 6 7 8 9 10 11 12 13 14 15 16 17 18 19 20 21 22 23 24 25 26 27 28 29 30 31 32 33 34 35 36 37 38 39 40 41 42 43 44 45 46 47 48 49 50
000
ASUS45 KBOU 152210
RWRCO

WEATHER ROUNDUP FOR COLORADO
NATIONAL WEATHER SERVICE DENVER/BOULDER CO
400 PM MDT WED AUG 15 2018

NOTE: "FAIR" INDICATES FEW OR NO CLOUDS BELOW 12000 FEET WITH NO
SIGNIFICANT WEATHER AND/OR OBSTRUCTIONS TO VISIBILITY.

COZ001>005-013-030-031-152300-
...NORTHWEST COLORADO...

CITY           SKY/WX    TMP DP  RH WIND       PRES   REMARKS
CRAIG          FAIR      90  29  11 SW13G18   30.12F
HAYDEN         FAIR      85  25  11 W15G23    30.17F
MEEKER         FAIR      84  26  12 SW7       30.17F
RANGELY        FAIR      91  31  11 SW10G20   30.07F
RABBIT EARS PA FAIR      68  28  22 NW10G21   30.50S
STEAMBOAT SPGS FAIR      84  24  11 W17G31    30.18S
WALDEN         FAIR      79  16   9 W21G26    30.29F
$$

COZ006>008-011-152300-
...WEST CENTRAL VALLEYS...

CITY           SKY/WX    TMP DP  RH WIND       PRES   REMARKS
GRAND JUNCTION FAIR      89  43  20 NW12      30.06F
MONTROSE       FAIR      83  43  24 SE13      30.17F
EAGLE          FAIR      85  31  14 SW8       30.16F
RIFLE          FAIR      92  31  11 MISG      30.07F
DELTA          FAIR      88  43  20 S9        30.11F
NUCLA          PTSUNNY   82  36  18 CALM        N/A
$$

COZ017>023-064>068-152300-
...SOUTHWEST COLORADO...

CITY           SKY/WX    TMP DP  RH WIND       PRES   REMARKS
DURANGO        PTSUNNY   83  40  21 CALM      30.20F
CORTEZ         FAIR      85  45  24 NW9       30.16F
PAGOSA SPRINGS FAIR      79  36  21 NE6       30.31F
TELLURIDE      PTSUNNY   70  37  30 W5        30.43F
WOLF CREEK PAS PTSUNNY   54  39  58 CALM      30.69F
$$

COZ009-010-012-014-032>034-037-058>063-152300-
...CENTRAL COLORADO...

CITY           SKY/WX    TMP DP  RH WIND       PRES   REMARKS
ASPEN          PTSUNNY   82  29  14 NW7G16    30.25F
BUENA VISTA    LGT RAIN  75  39  26 SE13G20   30.26S
COPPER MTN     PTSUNNY   68  23  18 MISG      30.62R
BERTHOUD PASS  FAIR      54  39  58 NW20G31   30.64R
COTTONWOOD PAS CLOUDY    73  37  27 CALM      30.43S
GUNNISON       FAIR      74  42  31 SW15G25   30.29R
GRANBY         FAIR      82  24  12 W15G23    30.29F
KREMMLING      FAIR      79  30  17 NW9       30.23F
LEADVILLE      PTSUNNY   69  27  20 VRB7G20   30.42F
MONARCH PASS   CLOUDY    57  32  38 MISG      30.72S
SALIDA         CLOUDY    76  37  24 CALM      30.32S
SUNLIGHT       PTSUNNY   66  27  22 CALM      30.55F
WILKERSON PASS FAIR      64  30  27 W3        30.57F
$$

COZ069>075-152300-
...SAN LUIS VALLEY/SANGRE DE CRISTO MOUNTAINS...

CITY           SKY/WX    TMP DP  RH WIND       PRES   REMARKS
ALAMOSA        PTSUNNY   64  52  64 NW29G41   30.31R
DEL NORTE      CLOUDY    65  44  46 NW13G18   30.38S
LA VETA PASS   NOT AVBL
SAGUACHE       NOT AVBL
$$

COZ035-036-038>040-152300-
...NORTHERN COLORADO FRONT RANGE...

CITY           SKY/WX    TMP DP  RH WIND       PRES   REMARKS
DENVER INTL AP FAIR      87  39  18 SE7       30.06F
AURORA         MOSUNNY   86  41  20 E7        30.08F
FRONT RANGE AP MOSUNNY   86  36  16 CALM      30.08F
ERIE MUNI ARPT FAIR      88  34  15 CALM      30.09F
BOULDER MUN AP FAIR      88  43  20 E7        30.05F
CENTENNIAL     FAIR      86  40  19 E9G21     30.09F
BROOMFIELD     MOSUNNY   88  36  15 E9        30.09F
FORT COLLINS   FAIR      89  51  27 E16       30.03F
LONGMONT       FAIR      92  36  14 SE5       30.04F
$$

COZ041-046-047-076>085-087-088-152300-
...PIKES PEAK/PALMER DIVIDE AND SOUTHERN FOOTHILLS...

CITY           SKY/WX    TMP DP  RH WIND       PRES   REMARKS
COLO. SPRINGS  PTSUNNY   78  60  53 S12       30.13F
A. F. ACADEMY  MOSUNNY   80  51  35 S10       30.14F
SCHRIEVER AFB  NOT AVBL
CHEYENNE MTN   PTSUNNY   75  55  49 S10       30.15S
ELLICOTT         N/A    N/A N/A N/A S14       30.12S
FALCON         PTSUNNY   82  50  31 E3        30.19F
FORT CARSON    SUNNY     78  61  56 S6        30.11F
LIMON          FAIR      87  38  17 VRB6      30.07F
MONUMENT HILL  FAIR      75  45  33 E9        30.21F
CANON CITY     CLOUDY    82  52  34 S25G32    30.09R
WALSENBURG     NOT AVBL
TRINIDAD       LGT RAIN  69  59  70 W14       30.18R
$$

COZ042>045-048>051-090-091-152300-
...NORTHEAST COLORADO...

CITY           SKY/WX    TMP DP  RH WIND       PRES   REMARKS
GREELEY ARPT   FAIR      88  48  25 VRB5      30.02S
AKRON          FAIR      87  49  26 N15       30.02F
BURLINGTON     FAIR      88  56  33 S13G18    30.00F
WRAY           FAIR      91  37  15 W12G17    29.94S
YUMA           FAIR     N/A N/A N/A NW10G23   29.98S
STERLING       FAIR      88  54  31 NE12G17   29.96F
HOLYOKE        FAIR      88  54  31 SE10G21   29.95R
FORT MORGAN    FAIR      90  38  16 NE5       30.02S
$$

COZ086-089-092>099-152300-
...SOUTHEAST COLORADO...

CITY           SKY/WX    TMP DP  RH WIND       PRES   REMARKS
PUEBLO         FAIR      85  57  38 SE10      30.02S
LA JUNTA       FAIR      87  58  37 SE9       30.00S
LAMAR          FAIR      90  59  35 SE12G20   29.96S
SPRINGFIELD      N/A     86  58  38 SE18G26   30.03F
$$



USA.gov is the U.S. government's official web portal to all federal, state and local government web resources and services.